QPF
0.02 0.01 0.01 0.01 0.01 0.01 0.01 0.01 0.01 0.01 0.01 0.02 0.02 0.02 0.02 0.02 0.02 0.02 0.02 0.02 0.02 0.03 0.04 0.05 0.05 0.05 0.04 0.04 0.04 0.05 0.04 0.03 0.02 0.01 0.01 0.01 0.01 0.01 0.01 0.01 0.00 0.01 0.01
0.01 0.01 0.02 0.02 0.02 0.01 0.01 0.01 0.01 0.01 0.01 0.01 0.02 0.02 0.01 0.02 0.02 0.02 0.02 0.02 0.03 0.04 0.05 0.06 0.06 0.05 0.04 0.04 0.04 0.03 0.04 0.04 0.03 0.02 0.02 0.01 0.02 0.01 0.02 0.02 0.01 0.01 0.01
0.01 0.01 0.01 0.01 0.01 0.01 0.01 0.01 0.01 0.01 0.01 0.01 0.02 0.02 0.02 0.02 0.02 0.02 0.02 0.03 0.03 0.04 0.05 0.06 0.06 0.07 0.05 0.05 0.04 0.03 0.03 0.02 0.02 0.02 0.01 0.02 0.01 0.01 0.02 0.01 0.01 0.01 0.01
0.02 0.02 0.02 0.02 0.01 0.02 0.01 0.01 0.00 0.01 0.01 0.02 0.02 0.02 0.03 0.02 0.02 0.01 0.03 0.03 0.04 0.04 0.05 0.06 0.06 0.07 0.06 0.06 0.05 0.05 0.04 0.03 0.03 0.03 0.02 0.02 0.03 0.03 0.02 0.01 0.01 0.01 0.01
0.02 0.03 0.03 0.02 0.02 0.01 0.01 0.01 0.01 0.01 0.01 0.02 0.02 0.04 0.05 0.04 0.03 0.03 0.03 0.05 0.06 0.09 0.08 0.06 0.05 0.05 0.06 0.06 0.05 0.06 0.05 0.05 0.04 0.04 0.04 0.03 0.03 0.04 0.02 0.01 0.01 0.01 0.01
0.02 0.02 0.02 0.01 0.01 0.01 0.01 0.01 0.01 0.01 0.02 0.02 0.04 0.06 0.05 0.05 0.06 0.06 0.06 0.05 0.06 0.06 0.06 0.05 0.04 0.04 0.04 0.05 0.05 0.05 0.06 0.06 0.06 0.06 0.05 0.04 0.04 0.04 0.03 0.02 0.02 0.02 0.01
0.01 0.01 0.00 0.01 0.01 0.01 0.01 0.00 0.01 0.01 0.02 0.03 0.05 0.06 0.05 0.07 0.09 0.08 0.10 0.08 0.09 0.10 0.09 0.09 0.08 0.07 0.07 0.07 0.07 0.09 0.08 0.06 0.06 0.07 0.06 0.05 0.05 0.05 0.04 0.03 0.03 0.03 0.03
0.01 0.01 0.01 0.01 0.01 0.01 0.02 0.02 0.02 0.02 0.02 0.03 0.04 0.06 0.06 0.07 0.09 0.07 0.09 0.09 0.08 0.08 0.08 0.07 0.07 0.08 0.09 0.10 0.10 0.11 0.10 0.08 0.06 0.05 0.04 0.04 0.04 0.06 0.04 0.04 0.04 0.04 0.03
0.01 0.01 0.02 0.02 0.02 0.02 0.02 0.03 0.03 0.04 0.04 0.04 0.05 0.05 0.05 0.05 0.06 0.05 0.07 0.06 0.06 0.06 0.07 0.07 0.07 0.08 0.08 0.09 0.08 0.06 0.05 0.04 0.03 0.03 0.03 0.02 0.03 0.03 0.03 0.03 0.04 0.03 0.03
0.01 0.01 0.01 0.01 0.02 0.03 0.03 0.04 0.06 0.07 0.07 0.06 0.05 0.04 0.04 0.04 0.05 0.05 0.06 0.05 0.05 0.06 0.07 0.07 0.06 0.05 0.04 0.04 0.04 0.03 0.03 0.04 0.05 0.04 0.04 0.04 0.03 0.03 0.04 0.03 0.04 0.04 0.04
0.01 0.02 0.02 0.03 0.03 0.04 0.05 0.06 0.06 0.07 0.07 0.06 0.04 0.04 0.03 0.03 0.04 0.05 0.05 0.04 0.04 0.04 0.04 0.04 0.03 0.03 0.03 0.02 0.02 0.02 0.02 0.03 0.05 0.06 0.07 0.06 0.06 0.07 0.06 0.05 0.03 0.04 0.04
0.02 0.03 0.04 0.05 0.06 0.07 0.07 0.07 0.06 0.07 0.06 0.05 0.04 0.03 0.03 0.03 0.03 0.03 0.05 0.05 0.05 0.05 0.05 0.07 0.07 0.05 0.04 0.03 0.02 0.02 0.02 0.03 0.04 0.05 0.05 0.06 0.07 0.07 0.06 0.05 0.05 0.05 0.04
0.04 0.05 0.06 0.08 0.09 0.09 0.07 0.07 0.07 0.06 0.05 0.04 0.03 0.03 0.02 0.03 0.03 0.03 0.03 0.03 0.03 0.04 0.04 0.04 0.04 0.04 0.03 0.03 0.02 0.02 0.02 0.02 0.02 0.03 0.03 0.05 0.06 0.07 0.07 0.07 0.07 0.07 0.09
0.05 0.06 0.06 0.07 0.07 0.08 0.08 0.08 0.08 0.06 0.05 0.04 0.04 0.03 0.02 0.02 0.02 0.02 0.03 0.03 0.03 0.03 0.03 0.03 0.03 0.03 0.02 0.02 0.03 0.03 0.03 0.04 0.04 0.03 0.03 0.03 0.04 0.05 0.06 0.06 0.07 0.08 0.09
0.02 0.02 0.03 0.03 0.04 0.05 0.06 0.07 0.06 0.05 0.04 0.03 0.03 0.02 0.02 0.02 0.02 0.02 0.02 0.02 0.03 0.03 0.03 0.03 0.03 0.04 0.04 0.04 0.05 0.06 0.06 0.05 0.04 0.03 0.02 0.02 0.02 0.03 0.02 0.02 0.03 0.04 0.05
0.02 0.02 0.02 0.01 0.01 0.02 0.03 0.03 0.03 0.03 0.03 0.02 0.02 0.02 0.02 0.02 0.03 0.04 0.04 0.04 0.05 0.05 0.04 0.03 0.04 0.05 0.06 0.06 0.06 0.05 0.04 0.03 0.03 0.02 0.02 0.01 0.01 0.02 0.02 0.02 0.02 0.02 0.03
0.02 0.02 0.02 0.02 0.02 0.02 0.02 0.04 0.03 0.04 0.04 0.04 0.03 0.03 0.03 0.04 0.03 0.04 0.04 0.05 0.06 0.06 0.05 0.04 0.04 0.04 0.04 0.04 0.04 0.04 0.03 0.03 0.03 0.02 0.01 0.01 0.01 0.01 0.01 0.01 0.02 0.02 0.02
0.02 0.02 0.02 0.02 0.03 0.03 0.03 0.04 0.04 0.03 0.03 0.03 0.03 0.03 0.04 0.05 0.05 0.05 0.06 0.05 0.05 0.05 0.05 0.04 0.04 0.04 0.04 0.04 0.04 0.04 0.03 0.03 0.03 0.02 0.02 0.01 0.01 0.01 0.01 0.01 0.01 0.01 0.02
0.02 0.03 0.03 0.03 0.03 0.02 0.02 0.03 0.04 0.04 0.04 0.03 0.02 0.03 0.03 0.04 0.04 0.04 0.04 0.03 0.03 0.05 0.06 0.06 0.06 0.06 0.06 0.04 0.03 0.04 0.04 0.04 0.03 0.03 0.02 0.03 0.02 0.01 0.01 0.02 0.01 0.01 0.01
0.02 0.03 0.03 0.04 0.04 0.04 0.04 0.03 0.03 0.04 0.05 0.05 0.04 0.03 0.03 0.02 0.02 0.02 0.02 0.02 0.02 0.03 0.05 0.06 0.08 0.08 0.08 0.06 0.03 0.04 0.04 0.04 0.03 0.03 0.03 0.03 0.02 0.02 0.01 0.01 0.01 0.01 0.01
0.01 0.02 0.02 0.02 0.03 0.03 0.03 0.03 0.03 0.03 0.04 0.04 0.04 0.04 0.03 0.02 0.02 0.02 0.03 0.04 0.03 0.03 0.04 0.06 0.07 0.08 0.08 0.06 0.04 0.04 0.04 0.03 0.03 0.03 0.03 0.03 0.03 0.03 0.02 0.02 0.02 0.02 0.02
0.00 0.00 0.01 0.01 0.02 0.02 0.02 0.02 0.03 0.03 0.03 0.03 0.03 0.03 0.03 0.02 0.02 0.02 0.04 0.04 0.04 0.05 0.04 0.04 0.04 0.04 0.04 0.04 0.04 0.03 0.03 0.03 0.03 0.03 0.02 0.03 0.03 0.02 0.03 0.03 0.03 0.03 0.02
0.00 0.00 0.01 0.01 0.01 0.01 0.02 0.03 0.03 0.02 0.02 0.02 0.02 0.02 0.02 0.01 0.01 0.01 0.02 0.02 0.02 0.03 0.02 0.02 0.02 0.02 0.02 0.02 0.01 0.02 0.02 0.03 0.04 0.04 0.04 0.03 0.03 0.03 0.03 0.03 0.03 0.03 0.02
0.01 0.01 0.01 0.02 0.02 0.02 0.03 0.03 0.02 0.01 0.01 0.02 0.02 0.03 0.02 0.01 0.01 0.01 0.01 0.01 0.01 0.01 0.01 0.01 0.02 0.02 0.02 0.02 0.01 0.01 0.01 0.02 0.03 0.04 0.05 0.04 0.03 0.04 0.04 0.04 0.04 0.03 0.03
0.02 0.02 0.03 0.03 0.03 0.04 0.03 0.02 0.02 0.02 0.02 0.02 0.02 0.02 0.02 0.02 0.01 0.01 0.01 0.01 0.01 0.01 0.01 0.01 0.01 0.01 0.01 0.01 0.01 0.01 0.02 0.02 0.02 0.02 0.02 0.02 0.02 0.02 0.03 0.03 0.04 0.05 0.05
0.02 0.02 0.02 0.03 0.03 0.03 0.02 0.02 0.02 0.02 0.02 0.02 0.02 0.02 0.02 0.02 0.01 0.01 0.01 0.02 0.02 0.02 0.01 0.01 0.01 0.01 0.01 0.01 0.01 0.02 0.02 0.02 0.01 0.01 0.01 0.02 0.03 0.03 0.03 0.04 0.04 0.04 0.05
MSLP
1012.47 1012.21 1011.98 1011.77 1011.59 1011.45 1011.33 1011.27 1011.26 1011.31 1011.42 1011.60 1011.84 1012.11 1012.41 1012.70 1012.97 1013.20 1013.40 1013.56 1013.68 1013.79 1013.88 1013.97 1014.06 1014.16 1014.26 1014.34 1014.39 1014.40 1014.36 1014.26 1014.12 1013.93 1013.72 1013.52 1013.32 1013.16 1013.05 1012.98 1012.96 1012.97 1013.01
1012.01 1011.68 1011.39 1011.13 1010.90 1010.70 1010.54 1010.43 1010.38 1010.39 1010.48 1010.64 1010.87 1011.15 1011.46 1011.77 1012.07 1012.33 1012.55 1012.72 1012.85 1012.94 1013.01 1013.08 1013.14 1013.21 1013.29 1013.37 1013.44 1013.48 1013.49 1013.46 1013.39 1013.29 1013.16 1013.02 1012.88 1012.75 1012.64 1012.55 1012.48 1012.43 1012.40
1011.57 1011.19 1010.85 1010.55 1010.28 1010.04 1009.84 1009.68 1009.58 1009.55 1009.60 1009.73 1009.93 1010.19 1010.49 1010.80 1011.11 1011.40 1011.64 1011.83 1011.97 1012.07 1012.14 1012.19 1012.23 1012.28 1012.34 1012.41 1012.48 1012.54 1012.59 1012.62 1012.62 1012.60 1012.55 1012.48 1012.40 1012.31 1012.22 1012.12 1012.02 1011.93 1011.83
1011.18 1010.76 1010.38 1010.05 1009.74 1009.47 1009.23 1009.04 1008.89 1008.82 1008.81 1008.89 1009.04 1009.27 1009.54 1009.84 1010.14 1010.43 1010.69 1010.90 1011.05 1011.17 1011.24 1011.29 1011.33 1011.36 1011.41 1011.47 1011.54 1011.61 1011.69 1011.76 1011.82 1011.86 1011.88 1011.88 1011.85 1011.81 1011.75 1011.66 1011.55 1011.42 1011.27
1010.85 1010.40 1010.00 1009.63 1009.30 1009.00 1008.73 1008.50 1008.32 1008.20 1008.14 1008.16 1008.26 1008.43 1008.65 1008.92 1009.20 1009.47 1009.73 1009.94 1010.11 1010.24 1010.32 1010.38 1010.43 1010.46 1010.51 1010.57 1010.64 1010.72 1010.81 1010.91 1011.00 1011.08 1011.15 1011.21 1011.23 1011.23 1011.20 1011.12 1011.02 1010.87 1010.70
1010.60 1010.12 1009.69 1009.30 1008.94 1008.62 1008.32 1008.07 1007.85 1007.69 1007.60 1007.57 1007.61 1007.72 1007.89 1008.10 1008.33 1008.58 1008.81 1009.01 1009.18 1009.31 1009.41 1009.48 1009.54 1009.59 1009.64 1009.70 1009.78 1009.86 1009.96 1010.07 1010.18 1010.29 1010.38 1010.46 1010.52 1010.55 1010.55 1010.50 1010.40 1010.27 1010.09
1010.40 1009.89 1009.42 1009.00 1008.62 1008.28 1007.97 1007.71 1007.48 1007.30 1007.18 1007.11 1007.11 1007.17 1007.28 1007.43 1007.61 1007.80 1007.99 1008.16 1008.31 1008.43 1008.53 1008.61 1008.68 1008.74 1008.81 1008.88 1008.96 1009.05 1009.15 1009.26 1009.36 1009.47 1009.57 1009.66 1009.73 1009.78 1009.80 1009.78 1009.72 1009.61 1009.47
1010.23 1009.68 1009.17 1008.72 1008.31 1007.96 1007.65 1007.39 1007.17 1007.00 1006.88 1006.81 1006.78 1006.81 1006.87 1006.96 1007.07 1007.20 1007.32 1007.44 1007.54 1007.63 1007.71 1007.79 1007.85 1007.93 1008.00 1008.09 1008.18 1008.27 1008.37 1008.46 1008.56 1008.65 1008.73 1008.81 1008.88 1008.94 1008.98 1008.99 1008.97 1008.92 1008.84
1010.04 1009.44 1008.90 1008.41 1007.98 1007.63 1007.33 1007.10 1006.91 1006.78 1006.69 1006.64 1006.62 1006.63 1006.65 1006.69 1006.73 1006.78 1006.82 1006.86 1006.89 1006.93 1006.97 1007.01 1007.07 1007.13 1007.22 1007.31 1007.40 1007.50 1007.59 1007.68 1007.76 1007.83 1007.89 1007.96 1008.02 1008.08 1008.14 1008.19 1008.23 1008.25 1008.25
1009.83 1009.18 1008.59 1008.07 1007.64 1007.29 1007.02 1006.83 1006.70 1006.63 1006.59 1006.59 1006.59 1006.60 1006.61 1006.60 1006.58 1006.54 1006.49 1006.43 1006.37 1006.32 1006.28 1006.28 1006.29 1006.34 1006.42 1006.51 1006.61 1006.71 1006.81 1006.89 1006.96 1007.02 1007.07 1007.12 1007.18 1007.25 1007.34 1007.44 1007.54 1007.65 1007.75
1009.61 1008.91 1008.28 1007.74 1007.30 1006.97 1006.74 1006.60 1006.54 1006.54 1006.58 1006.63 1006.68 1006.71 1006.70 1006.65 1006.56 1006.44 1006.28 1006.10 1005.93 1005.77 1005.65 1005.56 1005.52 1005.53 1005.58 1005.66 1005.77 1005.88 1005.99 1006.09 1006.17 1006.24 1006.30 1006.36 1006.43 1006.52 1006.64 1006.79 1006.97 1007.16 1007.35
1009.40 1008.67 1008.02 1007.47 1007.04 1006.73 1006.55 1006.47 1006.49 1006.56 1006.66 1006.78 1006.86 1006.91 1006.89 1006.80 1006.64 1006.42 1006.16 1005.86 1005.56 1005.27 1005.03 1004.84 1004.72 1004.67 1004.69 1004.76 1004.88 1005.01 1005.15 1005.29 1005.40 1005.51 1005.60 1005.69 1005.80 1005.93 1006.10 1006.30 1006.54 1006.80 1007.08
1009.28 1008.54 1007.88 1007.34 1006.94 1006.67 1006.53 1006.50 1006.57 1006.70 1006.86 1007.02 1007.13 1007.18 1007.14 1007.01 1006.78 1006.47 1006.09 1005.66 1005.23 1004.81 1004.44 1004.15 1003.93 1003.81 1003.79 1003.84 1003.96 1004.13 1004.31 1004.50 1004.68 1004.85 1005.01 1005.17 1005.33 1005.52 1005.73 1005.99 1006.28 1006.60 1006.94
1009.32 1008.60 1007.97 1007.45 1007.08 1006.84 1006.74 1006.75 1006.85 1007.01 1007.20 1007.37 1007.48 1007.51 1007.44 1007.26 1006.96 1006.56 1006.07 1005.53 1004.97 1004.43 1003.94 1003.52 1003.22 1003.02 1002.95 1002.98 1003.11 1003.31 1003.55 1003.81 1004.08 1004.34 1004.58 1004.82 1005.06 1005.31 1005.58 1005.87 1006.20 1006.55 1006.91
1009.59 1008.91 1008.33 1007.86 1007.52 1007.31 1007.23 1007.26 1007.37 1007.53 1007.70 1007.85 1007.94 1007.93 1007.82 1007.58 1007.21 1006.73 1006.15 1005.52 1004.85 1004.20 1003.60 1003.09 1002.69 1002.43 1002.31 1002.32 1002.45 1002.67 1002.97 1003.31 1003.66 1004.02 1004.37 1004.70 1005.02 1005.33 1005.64 1005.96 1006.30 1006.64 1006.99
1010.11 1009.50 1008.98 1008.57 1008.27 1008.09 1008.01 1008.03 1008.12 1008.25 1008.38 1008.48 1008.52 1008.46 1008.29 1008.00 1007.58 1007.04 1006.41 1005.70 1004.97 1004.25 1003.57 1002.98 1002.52 1002.20 1002.03 1002.01 1002.14 1002.38 1002.72 1003.12 1003.55 1003.99 1004.43 1004.84 1005.22 1005.59 1005.93 1006.26 1006.57 1006.88 1007.18
1010.84 1010.32 1009.88 1009.53 1009.27 1009.10 1009.03 1009.02 1009.07 1009.14 1009.21 1009.25 1009.22 1009.11 1008.90 1008.57 1008.12 1007.56 1006.90 1006.18 1005.42 1004.66 1003.96 1003.33 1002.82 1002.46 1002.25 1002.20 1002.31 1002.56 1002.91 1003.34 1003.82 1004.31 1004.80 1005.26 1005.69 1006.08 1006.42 1006.73 1007.01 1007.26 1007.48
1011.70 1011.28 1010.92 1010.63 1010.41 1010.26 1010.17 1010.14 1010.13 1010.14 1010.15 1010.12 1010.03 1009.88 1009.63 1009.29 1008.84 1008.30 1007.67 1006.98 1006.25 1005.52 1004.82 1004.20 1003.68 1003.29 1003.06 1002.98 1003.06 1003.27 1003.61 1004.03 1004.50 1005.01 1005.50 1005.97 1006.40 1006.78 1007.10 1007.37 1007.59 1007.76 1007.90
1012.57 1012.25 1011.97 1011.74 1011.56 1011.42 1011.33 1011.26 1011.21 1011.16 1011.11 1011.02 1010.90 1010.71 1010.47 1010.14 1009.74 1009.25 1008.70 1008.09 1007.44 1006.78 1006.15 1005.57 1005.08 1004.70 1004.44 1004.34 1004.37 1004.53 1004.81 1005.17 1005.60 1006.05 1006.51 1006.94 1007.33 1007.66 1007.93 1008.13 1008.28 1008.38 1008.43
1013.35 1013.11 1012.90 1012.72 1012.58 1012.45 1012.35 1012.26 1012.18 1012.09 1012.00 1011.88 1011.74 1011.56 1011.33 1011.06 1010.73 1010.34 1009.90 1009.42 1008.90 1008.36 1007.84 1007.34 1006.91 1006.56 1006.30 1006.17 1006.15 1006.24 1006.43 1006.70 1007.03 1007.38 1007.75 1008.09 1008.40 1008.65 1008.84 1008.98 1009.05 1009.07 1009.05
1013.92 1013.74 1013.59 1013.46 1013.34 1013.24 1013.14 1013.05 1012.95 1012.84 1012.73 1012.61 1012.47 1012.32 1012.14 1011.94 1011.72 1011.46 1011.16 1010.83 1010.47 1010.08 1009.70 1009.32 1008.98 1008.68 1008.44 1008.28 1008.21 1008.22 1008.31 1008.46 1008.66 1008.88 1009.12 1009.34 1009.53 1009.69 1009.79 1009.84 1009.85 1009.80 1009.72
1014.24 1014.11 1014.00 1013.90 1013.82 1013.73 1013.65 1013.56 1013.46 1013.36 1013.25 1013.14 1013.03 1012.92 1012.81 1012.70 1012.59 1012.46 1012.32 1012.15 1011.96 1011.75 1011.52 1011.28 1011.04 1010.82 1010.62 1010.46 1010.34 1010.28 1010.26 1010.28 1010.34 1010.42 1010.51 1010.59 1010.66 1010.70 1010.71 1010.68 1010.62 1010.52 1010.39
1014.30 1014.20 1014.12 1014.05 1013.99 1013.93 1013.86 1013.79 1013.71 1013.62 1013.54 1013.46 1013.39 1013.33 1013.29 1013.26 1013.25 1013.25 1013.25 1013.24 1013.21 1013.17 1013.10 1013.00 1012.88 1012.75 1012.61 1012.46 1012.32 1012.20 1012.09 1012.00 1011.93 1011.87 1011.81 1011.76 1011.70 1011.64 1011.55 1011.45 1011.33 1011.19 1011.03
1014.18 1014.09 1014.02 1013.97 1013.93 1013.89 1013.85 1013.80 1013.75 1013.70 1013.64 1013.59 1013.56 1013.55 1013.57 1013.62 1013.69 1013.79 1013.91 1014.03 1014.14 1014.24 1014.31 1014.35 1014.35 1014.31 1014.24 1014.13 1014.00 1013.85 1013.68 1013.50 1013.32 1013.15 1012.97 1012.80 1012.63 1012.47 1012.30 1012.14 1011.97 1011.80 1011.62
1013.94 1013.86 1013.80 1013.76 1013.74 1013.73 1013.71 1013.70 1013.68 1013.65 1013.63 1013.62 1013.63 1013.66 1013.72 1013.82 1013.95 1014.12 1014.31 1014.53 1014.75 1014.96 1015.15 1015.30 1015.41 1015.47 1015.47 1015.42 1015.31 1015.15 1014.96 1014.73 1014.48 1014.22 1013.96 1013.70 1013.44 1013.20 1012.97 1012.76 1012.55 1012.35 1012.15
1013.66 1013.58 1013.53 1013.51 1013.51 1013.52 1013.54 1013.56 1013.57 1013.59 1013.61 1013.63 1013.67 1013.73 1013.82 1013.94 1014.11 1014.32 1014.56 1014.83 1015.12 1015.40 1015.68 1015.92 1016.12 1016.26 1016.33 1016.34 1016.27 1016.14 1015.95 1015.71 1015.43 1015.12 1014.80 1014.48 1014.17 1013.87 1013.59 1013.34 1013.10 1012.87 1012.65
Thickness
5784 5782 5779 5777 5775 5773 5772 5771 5770 5768 5766 5764 5763 5761 5760 5758 5757 5755 5754 5753 5751 5750 5750 5749 5747 5746 5745 5745 5743 5741 5738 5736 5731 5733 5734 5731 5726 5723 5722 5720 5720 5719 5718
5782 5779 5777 5775 5773 5771 5771 5770 5768 5766 5765 5763 5761 5760 5759 5757 5755 5753 5751 5750 5749 5747 5746 5745 5744 5743 5740 5740 5739 5737 5735 5733 5729 5725 5726 5725 5722 5719 5717 5715 5716 5717 5715
5779 5776 5774 5772 5770 5769 5768 5768 5766 5764 5763 5762 5759 5757 5756 5755 5753 5751 5749 5748 5746 5745 5743 5741 5740 5738 5735 5736 5734 5734 5732 5730 5727 5723 5721 5720 5718 5716 5712 5711 5712 5710 5710
5775 5772 5770 5769 5767 5766 5765 5764 5763 5761 5760 5758 5757 5755 5753 5752 5750 5748 5746 5744 5742 5741 5740 5738 5737 5735 5733 5731 5730 5727 5726 5723 5721 5718 5716 5714 5711 5709 5706 5705 5705 5706 5705
5769 5767 5766 5765 5764 5762 5760 5759 5758 5757 5757 5755 5754 5752 5750 5748 5747 5744 5742 5740 5737 5736 5734 5733 5732 5730 5728 5726 5726 5723 5720 5717 5716 5713 5711 5708 5706 5701 5700 5701 5699 5700 5699
5763 5762 5761 5760 5758 5757 5755 5754 5753 5752 5752 5751 5749 5747 5746 5745 5742 5738 5736 5735 5733 5730 5728 5727 5726 5724 5722 5719 5717 5714 5712 5710 5709 5707 5705 5702 5699 5698 5696 5694 5693 5692 5690
5758 5756 5755 5754 5752 5751 5750 5748 5747 5746 5746 5745 5744 5743 5741 5738 5734 5731 5729 5728 5727 5725 5723 5721 5722 5722 5717 5715 5711 5707 5705 5703 5702 5700 5698 5697 5695 5694 5690 5688 5686 5685 5683
5752 5750 5749 5747 5745 5744 5742 5740 5739 5739 5739 5738 5737 5737 5735 5733 5728 5725 5722 5721 5720 5718 5717 5715 5713 5711 5710 5707 5705 5703 5701 5699 5697 5694 5693 5692 5690 5687 5685 5683 5681 5678 5677
5745 5744 5742 5740 5737 5735 5734 5732 5732 5731 5730 5730 5730 5729 5727 5725 5721 5718 5714 5714 5713 5711 5710 5708 5706 5704 5700 5697 5696 5694 5693 5691 5689 5686 5684 5682 5680 5677 5676 5676 5674 5673 5671
5738 5737 5735 5733 5730 5727 5726 5724 5724 5723 5722 5722 5721 5721 5720 5718 5713 5710 5707 5709 5707 5704 5702 5700 5697 5695 5690 5688 5688 5687 5684 5683 5681 5680 5676 5674 5673 5671 5668 5667 5668 5666 5665
5732 5730 5727 5726 5724 5722 5719 5717 5715 5715 5714 5714 5713 5712 5712 5709 5706 5702 5699 5701 5701 5698 5696 5694 5691 5685 5682 5679 5679 5679 5677 5674 5672 5671 5670 5668 5667 5664 5662 5660 5659 5658 5657
5723 5721 5719 5718 5717 5716 5712 5710 5708 5707 5705 5705 5704 5703 5703 5701 5698 5695 5691 5690 5690 5690 5688 5687 5682 5676 5673 5670 5669 5668 5666 5664 5665 5665 5663 5660 5659 5657 5655 5653 5651 5650 5648
5714 5712 5710 5710 5708 5707 5705 5703 5701 5699 5699 5698 5696 5695 5694 5693 5689 5685 5683 5680 5679 5680 5680 5676 5672 5667 5665 5663 5660 5658 5657 5658 5658 5657 5655 5653 5651 5649 5647 5644 5642 5640 5639
5704 5703 5702 5702 5700 5699 5698 5697 5696 5694 5692 5691 5689 5686 5685 5684 5682 5678 5676 5673 5670 5669 5669 5665 5661 5658 5657 5655 5654 5652 5651 5650 5650 5649 5647 5645 5643 5641 5639 5639 5636 5635 5634
5695 5694 5694 5694 5692 5689 5688 5686 5685 5683 5683 5681 5680 5679 5676 5674 5669 5664 5664 5664 5662 5660 5657 5657 5656 5655 5652 5650 5649 5647 5645 5643 5641 5640 5639 5638 5636 5634 5633 5631 5629 5628 5627
5686 5685 5686 5685 5683 5681 5679 5676 5671 5670 5668 5666 5665 5664 5665 5660 5656 5653 5651 5649 5648 5646 5647 5649 5648 5647 5645 5643 5641 5639 5637 5635 5633 5632 5631 5630 5629 5628 5626 5625 5623 5621 5619
5677 5676 5677 5676 5674 5672 5670 5668 5665 5659 5656 5655 5653 5652 5650 5647 5644 5642 5640 5638 5637 5636 5639 5641 5640 5639 5637 5636 5634 5632 5629 5627 5625 5624 5623 5623 5621 5619 5618 5616 5615 5613 5611
5669 5667 5667 5666 5666 5664 5662 5660 5657 5655 5652 5649 5644 5641 5639 5636 5634 5632 5630 5629 5632 5631 5634 5633 5632 5631 5629 5627 5626 5624 5622 5620 5618 5616 5615 5614 5612 5610 5609 5608 5606 5604 5604
5661 5660 5659 5658 5657 5655 5653 5651 5648 5646 5644 5642 5640 5635 5630 5627 5625 5623 5622 5626 5628 5627 5627 5626 5625 5624 5622 5621 5619 5616 5614 5612 5610 5609 5607 5605 5604 5602 5601 5600 5599 5596 5595
5652 5649 5648 5648 5647 5646 5643 5642 5640 5638 5636 5634 5632 5630 5625 5623 5622 5619 5619 5620 5620 5620 5619 5618 5616 5615 5614 5612 5610 5608 5607 5606 5604 5603 5601 5599 5598 5596 5595 5593 5592 5592 5590
5644 5642 5638 5639 5639 5637 5635 5633 5632 5630 5628 5626 5624 5621 5616 5617 5616 5614 5613 5612 5612 5611 5610 5608 5607 5606 5605 5604 5602 5600 5599 5599 5598 5596 5595 5593 5591 5590 5589 5588 5586 5585 5584
5636 5635 5632 5631 5629 5628 5627 5625 5623 5621 5620 5618 5617 5614 5607 5609 5609 5607 5605 5603 5603 5602 5601 5600 5600 5599 5597 5596 5595 5593 5592 5592 5591 5589 5588 5587 5585 5584 5583 5581 5580 5579 5577
5628 5627 5625 5623 5621 5618 5617 5616 5615 5613 5612 5611 5610 5607 5605 5603 5601 5600 5598 5597 5595 5594 5593 5592 5591 5591 5589 5588 5587 5586 5584 5584 5582 5581 5580 5579 5578 5578 5577 5576 5574 5573 5572
5621 5619 5617 5615 5613 5611 5610 5608 5608 5606 5605 5604 5602 5600 5598 5596 5594 5592 5591 5590 5588 5587 5585 5584 5583 5582 5581 5580 5579 5578 5576 5574 5573 5573 5572 5573 5573 5572 5572 5570 5569 5568 5567
5613 5611 5609 5607 5605 5604 5602 5601 5600 5599 5598 5598 5596 5594 5593 5590 5588 5586 5584 5583 5581 5580 5579 5577 5576 5575 5573 5572 5571 5570 5566 5565 5564 5564 5565 5566 5566 5566 5566 5565 5564 5563 5562
5605 5603 5601 5599 5598 5596 5596 5595 5594 5593 5592 5591 5589 5587 5586 5585 5583 5580 5578 5576 5574 5573 5572 5570 5569 5568 5567 5565 5563 5560 5558 5557 5556 5556 5557 5559 5560 5560 5560 5560 5559 5558 5557